Millington, TN

4:14 PM CDT on May 25, 2018 (GMT -0500)
Millington Municipal

Weather History for KNQA - August, 2014

Change the Weather History Date:

Thursday, August 14, 2014

  Actual Average Record
Temperature  
Mean Temperature 72 °F -  
Max Temperature 86 °F 88 °F 104 °F (2007)
Min Temperature 57 °F 69 °F 50 °F (2004)
Cooling Degree Days 6    
Growing Degree Days 22 (Base 50)    
Moisture  
Dew Point 62 °F    
Average Humidity 80    
Maximum Humidity 100    
Minimum Humidity 45    
Precipitation  
Precipitation 0.00 in - - ()
Sea Level Pressure  
Sea Level Pressure 30.06 in    
Wind  
Wind Speed 1 mph (NNE)    
Max Wind Speed 8 mph    
Max Gust Speed -    
Visibility 10 miles    
Events      
Averages and records for this station are not official NWS values.
T = Trace of Precipitation, MM = Missing Value Source: NWS Daily Summary

Daily Weather History Graph

Daily Weather History Graph

Search for Another Location

Airport or City:

Astronomy

Aug. 14, 2014 Rise Set
Actual Time 6:18 AM CDT 7:49 PM CDT
Civil Twilight 5:51 AM CDT 8:16 PM CDT
Nautical Twilight 5:18 AM CDT 8:48 PM CDT
Astronomical Twilight 4:44 AM CDT 9:22 PM CDT
Moon 10:25 PM CDT (8/14) 10:43 AM CDT (8/14)
Length of Visible Light 14h 25m
Length of Day
13h 31m
Waning Gibbous, 79% of the Moon is Illuminated
Aug 14
Waning Gibbous
Aug 17
Last Quarter
Aug 25
New
Sep 2
First Quarter
Sep 8
Full

Hourly Weather History & Observations

Time (CDT) Temp. Heat Index Dew Point Humidity Pressure Visibility Wind Dir Wind Speed Gust Speed Precip Events Conditions
12:50 AM 62.6 °F - 60.8 °F 94% 30.07 in 10.0 mi Calm Calm - N/A   Clear
1:50 AM 62.6 °F - 60.8 °F 94% 30.06 in 10.0 mi Calm Calm - N/A   Clear
2:15 AM 60.8 °F - 60.8 °F 100% 30.06 in 9.0 mi Calm Calm - N/A   Clear
2:35 AM 60.8 °F - 60.8 °F 100% 30.06 in 9.0 mi Calm Calm - N/A   Clear
2:55 AM 60.8 °F - 60.8 °F 100% 30.06 in 9.0 mi Calm Calm - N/A   Clear
3:15 AM 60.8 °F - 60.8 °F 100% 30.06 in 9.0 mi Calm Calm - N/A   Clear
3:35 AM 60.8 °F - 60.8 °F 100% 30.06 in 10.0 mi Calm Calm - N/A   Clear
3:55 AM 60.8 °F - 57.2 °F 88% 30.06 in 10.0 mi Calm Calm - N/A   Clear
4:15 AM 59.0 °F - 59.0 °F 100% 30.06 in 8.0 mi Calm Calm - N/A   Clear
4:35 AM 59.0 °F - 59.0 °F 100% 30.07 in 10.0 mi Calm Calm - N/A   Clear
5:30 AM 59.0 °F - 57.2 °F 94% 30.08 in 10.0 mi Calm Calm - N/A   Clear
5:50 AM 57.2 °F - 57.2 °F 100% 30.08 in 10.0 mi Calm Calm - N/A   Clear
6:50 AM 59.0 °F - 59.0 °F 100% 30.10 in 10.0 mi Calm Calm - N/A   Clear
7:50 AM 66.2 °F - 62.6 °F 88% 30.12 in 10.0 mi Calm Calm - N/A   Clear
8:50 AM 75.2 °F - 66.2 °F 73% 30.11 in 10.0 mi Calm Calm - N/A   Partly Cloudy
9:50 AM 78.8 °F - 62.6 °F 57% 30.11 in 10.0 mi Calm Calm - N/A   Partly Cloudy
10:50 AM 80.6 °F 81.5 °F 60.8 °F 51% 30.10 in 10.0 mi Calm Calm - N/A   Scattered Clouds
11:50 AM 84.2 °F 84.4 °F 60.8 °F 45% 30.09 in 10.0 mi Calm Calm - N/A   Scattered Clouds
1:50 PM 82.4 °F 83.4 °F 62.6 °F 51% 30.06 in 10.0 mi NE 8.1 mph - N/A   Scattered Clouds
3:50 PM 84.2 °F 85.0 °F 62.6 °F 48% 30.04 in 10.0 mi NNE 5.8 mph - N/A   Scattered Clouds
4:50 PM 86.0 °F 86.6 °F 62.6 °F 45% 30.04 in 10.0 mi Variable 4.6 mph - N/A   Scattered Clouds
5:50 PM 84.2 °F 85.0 °F 62.6 °F 48% 30.02 in 10.0 mi NNE 4.6 mph - N/A   Scattered Clouds
6:50 PM 82.4 °F 83.4 °F 62.6 °F 51% 30.01 in 10.0 mi NNE 3.5 mph - N/A   Scattered Clouds
7:50 PM 75.2 °F - 66.2 °F 73% 30.01 in 10.0 mi Calm Calm - N/A   Scattered Clouds
8:50 PM 69.8 °F - 66.2 °F 88% 30.02 in 10.0 mi Calm Calm - N/A   Scattered Clouds
9:50 PM 69.8 °F - 64.4 °F 83% 30.04 in 10.0 mi Calm Calm - N/A   Clear
11:50 PM 64.4 °F - 64.4 °F 100% 30.03 in 10.0 mi Calm Calm - N/A   Clear